Location: Arboyeti
(42.1122°N, 44.6017°E)
Time: 20:40:44
(UTC+00:00)

BREEZE-M DEB (TANK) - Pass Details

Date: 19 April 2021
Orbit: 289 x 13024 km, 49.6° (Epoch: 18 May)

Event Time Altitude Azimuth Distance (km) Brightness Sun altitude
Rises 17:03:32 0° 267° (W) 2,462 6.7 -13.8°
Reaches altitude 10° 17:04:56 10° 273° (W) 1,860 6.0 -14.0°
Maximum altitude 17:08:40 53° 353° (N) 1,187 4.2 -14.6°
Drops below altitude 10° 17:21:01 10° 69° (ENE) 5,902 7.2 -16.6°
Sets 17:29:52 0° 74° (ENE) 9,023 8.1 -17.9°
